Current Weather Conditions: station KGHG

sailwx.info

See reports from other nearby stations

no recent reports received from weather station ID KGHG

Tides Pressure Air temp Water temp Dewpoint Dewpoint depression Visibility Wind speed Wind direction Waves Ship positions
date/time (UTC)wind fromknots sea level pressurealtimeterstation pressurevisibilityair tempwater tempwave heightnotes
2017-Jan-24 05:35 050 21 gusting 29 1.7 4.0
2017-Jan-24 05:15 050 20 gusting 36 1.7 4.0
2017-Jan-24 04:55 050 24 gusting 34 1.7 4.0 Heavy rain.
2017-Jan-24 04:35 050 24 gusting 34 1.7 4.0 Light rain.
2017-Jan-24 04:15 050 19 gusting 35 1.7 4.0 Rain.
2017-Jan-24 03:55 050 24 gusting 38 1.7 4.0 Heavy rain.
2017-Jan-24 03:35 060 21 gusting 34 1.7 4.0
2017-Jan-24 03:15 060 21 gusting 34 1.7 4.0 Heavy rain.
2017-Jan-24 02:55 060 21 gusting 32 1.7 4.0
2017-Jan-24 02:35 060 20 gusting 29 1.5 4.0
2017-Jan-24 02:15 060 21 gusting 34 1.5 4.0
2017-Jan-24 01:55 060 18 gusting 33 1.7 4.0
2017-Jan-24 01:35 060 20 gusting 34 1.5 4.0
2017-Jan-24 01:15 060 20 gusting 34 1.7 4.0
2017-Jan-24 00:55 060 26 gusting 34 1.7 4.0 Light rain.
2017-Jan-24 00:35 060 25 gusting 34 2.2 4.0
2017-Jan-24 00:15 060 21 gusting 29 2.6 4.0
2017-Jan-23 23:55 060 25 gusting 32 3.5 4.0
2017-Jan-23 23:35 060 25 gusting 34 8.7 4.0
2017-Jan-23 23:15 070 21 gusting 32 7.8 4.0
2017-Jan-23 22:55 060 21 gusting 33 8.7 4.0
2017-Jan-23 22:35 070 22 gusting 28 8.7 4.0
2017-Jan-23 22:15 060 22 gusting 31 8.7 4.0
2017-Jan-23 21:55 070 19 gusting 29 8.7 4.0
2017-Jan-23 21:35 070 20 gusting 28 8.7 4.0
2017-Jan-23 21:15 060 18 gusting 27 7.8 4.0
2017-Jan-23 20:55 070 20 gusting 27 7.8 4.0
2017-Jan-23 20:35 070 22 gusting 29 7.8 3.0
2017-Jan-23 20:15 070 20 gusting 28 5.2 3.0 Light rain.
2017-Jan-23 19:55 070 18 gusting 28 8.7 4.0
2017-Jan-23 19:35 070 20 gusting 28 6.1 4.0
2017-Jan-23 19:15 060 15 gusting 25 4.3 4.0 Light rain.
2017-Jan-23 18:55 070 20 gusting 27 6.1 3.0
2017-Jan-23 18:35 070 20 gusting 26 4.3 3.0 Light rain.
2017-Jan-23 18:15 070 18 gusting 27 6.1 3.0 Light rain.
2017-Jan-23 17:55 070 19 gusting 27 7.8 3.0
2017-Jan-23 17:35 060 20 gusting 27 8.7 4.0
2017-Jan-23 17:15 060 12 gusting 27 8.7 4.0
2017-Jan-23 16:55 060 15 gusting 27 8.7 4.0
2017-Jan-23 16:35 060 19 gusting 25 8.7 4.0
2017-Jan-23 16:15 060 19 gusting 26 8.7 4.0
2017-Jan-23 15:55 070 20 gusting 26 8.7 3.0
2017-Jan-23 15:35 070 18 gusting 28 8.7 3.0
2017-Jan-23 15:15 060 19 gusting 26 8.7 3.0
2017-Jan-23 14:55 070 19 gusting 25 6.9 3.0
2017-Jan-23 14:35 060 14 gusting 25 8.7 3.0
2017-Jan-23 14:15 060 17 gusting 24 6.1 3.0
2017-Jan-23 13:55 060 18 gusting 25 8.7 3.0
2017-Jan-23 13:35 060 14 gusting 27 8.7 3.0
2017-Jan-23 13:15 050 13 gusting 25 6.9 3.0
2017-Jan-23 12:55 060 15 gusting 25 7.8 3.0
2017-Jan-23 12:35 070 13 gusting 25 8.7 3.0
2017-Jan-23 12:15 060 14 gusting 21 8.7 3.0
2017-Jan-23 11:55 080 18 gusting 25 6.9 3.0 Light snow.
2017-Jan-23 11:35 060 13 gusting 26 3.5 2.0 Light rain.
2017-Jan-23 11:15 070 20 8.7 3.0
2017-Jan-23 10:55 060 17 gusting 25 4.3 3.0 Light rain.
2017-Jan-23 10:35 060 13 gusting 26 7.8 3.0
2017-Jan-23 10:15 060 14 gusting 26 8.7 3.0
2017-Jan-23 09:55 060 18 gusting 26 8.7 3.0
2017-Jan-23 09:35 060 20 gusting 29 7.8 3.0
2017-Jan-23 09:15 070 19 gusting 27 8.7 3.0
2017-Jan-23 08:55 060 14 gusting 27 7.8 4.0
2017-Jan-23 08:35 060 19 8.7 4.0
2017-Jan-23 08:15 050 15 gusting 24 8.7 4.0
2017-Jan-23 07:55 060 18 gusting 25 8.7 5.0
2017-Jan-23 07:35 060 19 gusting 24 8.7 5.0
2017-Jan-23 07:15 060 17 gusting 25 8.7 5.0
2017-Jan-23 06:55 060 20 gusting 26 8.7 5.0
2017-Jan-23 06:35 060 18 gusting 25 8.7 5.0
2017-Jan-23 06:15 060 13 gusting 25 8.7 5.0
2017-Jan-23 05:55 060 17 gusting 25 8.7 5.0
2017-Jan-23 05:35 060 13 gusting 22 8.7 5.0
2017-Jan-23 05:15 060 13 gusting 24 8.7 5.0
2017-Jan-23 04:55 060 15 gusting 26 8.7 5.0
2017-Jan-23 04:35 060 17 gusting 24 8.7 5.0
2017-Jan-23 04:15 060 13 gusting 20 8.7 6.0
2017-Jan-23 03:55 060 14 gusting 22 5.2 5.0 Haze.
2017-Jan-23 03:35 070 17 gusting 24 4.3 5.0
2017-Jan-23 03:15 070 15 gusting 22 8.7 6.0
2017-Jan-23 02:55 070 15 gusting 20 8.7 6.0
2017-Jan-23 02:35 070 14 gusting 20 8.7 6.0
2017-Jan-23 02:15 070 13 gusting 20 8.7 6.0
2017-Jan-23 01:55 070 13 gusting 20 8.7 6.0
2017-Jan-23 01:35 070 13 gusting 20 8.7 6.0
2017-Jan-23 01:15 060 14 gusting 24 8.7 6.0
2017-Jan-23 00:55 060 13 gusting 21 8.7 6.0
2017-Jan-23 00:35 070 15 8.7 6.0
2017-Jan-23 00:15 060 15 gusting 20 8.7 6.0
2017-Jan-22 23:55 060 14 gusting 21 8.7 6.0
2017-Jan-22 23:35 070 15 gusting 20 8.7 6.0
2017-Jan-22 23:15 070 13 gusting 19 8.7 6.0
2017-Jan-22 22:55 060 13 gusting 21 8.7 6.0
2017-Jan-22 22:35 060 14 gusting 20 7.8 6.0
2017-Jan-22 22:15 060 13 gusting 20 6.9 6.0
2017-Jan-22 21:55 060 15 8.7 6.0
2017-Jan-22 21:35 060 11 gusting 17 8.7 6.0
2017-Jan-22 21:15 060 11 8.7 7.0
2017-Jan-22 20:55 060 12 gusting 17 6.9 7.0
2017-Jan-22 20:35 060 11 8.7 7.0
2017-Jan-22 20:15 050 8 gusting 14 8.7 7.0
2017-Jan-22 19:55 050 9 gusting 14 8.7 7.0
2017-Jan-22 19:35 050 8 8.7 7.0
2017-Jan-22 19:15 040 6 gusting 12 8.7 8.0
2017-Jan-22 18:55 020 6 gusting 12 8.7 8.0
2017-Jan-22 18:35 8.7 9.0
2017-Jan-22 18:15 8.7 9.0
2017-Jan-22 17:55 8.7 9.0
2017-Jan-22 17:35 8.7 9.0
2017-Jan-22 17:15 8.7 9.0
2017-Jan-22 16:55 8.7 8.0
2017-Jan-22 16:35 8.7 8.0
2017-Jan-22 16:15 8.7 9.0
2017-Jan-22 15:55 8.7 8.0
2017-Jan-22 15:35 8.7 8.0
2017-Jan-22 15:15 8.7 8.0
2017-Jan-22 14:55 8.7 8.0
2017-Jan-22 14:35 8.7 7.0
2017-Jan-22 14:15 8.7 6.0
2017-Jan-22 13:55 7.8 5.0
2017-Jan-22 13:35 5.2 4.0 Mist.
2017-Jan-22 13:15 3.5 4.0 Mist.
2017-Jan-22 12:55 2.6 3.0 Mist.
2017-Jan-22 12:35 3.5 3.0 Mist.
2017-Jan-22 12:15 2.6 3.0 Mist.
2017-Jan-22 11:55 270 4 3.5 3.0 Mist.
2017-Jan-22 11:35 270 2 3.5 3.0 Mist.
2017-Jan-22 11:15 3.5 3.0 Mist.
2017-Jan-22 10:55 250 4 3.5 3.0 Mist.
2017-Jan-22 10:35 280 4 3.5 4.0 Mist.
2017-Jan-22 10:15 260 6 3.5 3.0 Mist.
2017-Jan-22 09:55 250 4 3.5 3.0 Mist.
2017-Jan-22 09:35 3.5 3.0 Mist.
2017-Jan-22 09:15 240 4 2.6 3.0 Mist.
2017-Jan-22 08:55 2.6 3.0 Mist.
2017-Jan-22 08:35 220 4 3.5 3.0 Mist.
2017-Jan-22 08:15 3.5 3.0 Mist.
2017-Jan-22 07:55 3.5 4.0 Mist.
2017-Jan-22 07:35 260 4 3.5 4.0 Mist.
2017-Jan-22 07:15 250 4 2.6 4.0 Mist.